Date,TemperatureHighF,TemperatureAvgF,TemperatureLowF,DewpointHighF,DewpointAvgF,DewpointLowF,HumidityHigh,HumidityAvg,HumidityLow,PressureMaxIn,PressureMinIn,WindSpeedMaxMPH,WindSpeedAvgMPH,GustSpeedMaxMPH,PrecipitationSumIn
2013-3-1,34.4,31.0,28.6,30.4,28.3,24.6,96,90,78,30.25,30.12,12,3,12,0.09
2013-3-2,34.2,29.0,20.7,24.8,21.5,17.9,89,74,56,30.30,30.24,15,3,15,0.01
2013-3-3,40.9,30.0,15.5,26.6,20.1,13.5,95,69,42,30.27,30.08,8,0,8,0.00
2013-3-4,51.7,42.7,34.4,39.3,32.5,26.7,85,68,52,30.08,29.79,19,3,19,0.02
2013-3-5,42.5,34.7,31.9,34.8,30.2,24.2,97,84,69,30.17,29.82,29,6,29,0.20
2013-3-6,38.1,32.5,26.3,27.2,24.9,23.0,88,74,63,30.41,30.17,28,4,28,0.03
2013-3-7,45.9,34.1,21.7,31.4,26.9,19.7,94,76,51,30.48,30.35,12,1,12,0.00
2013-3-8,53.4,42.2,30.2,36.0,31.8,27.3,90,68,44,30.47,30.23,15,2,15,0.00
2013-3-9,66.8,52.5,40.8,44.0,38.0,31.2,92,60,40,30.23,29.81,19,3,19,0.38
2013-3-10,60.2,52.9,46.4,53.3,49.3,40.9,97,88,49,29.81,29.65,29,1,29,1.14
2013-3-11,46.4,36.3,33.5,43.5,32.1,27.4,93,85,73,30.03,29.73,24,6,24,0.03
2013-3-12,48.6,37.5,29.5,30.1,26.6,22.6,85,66,45,30.25,30.01,26,6,27,0.00
2013-3-13,40.9,33.3,27.3,27.3,20.9,18.1,86,61,42,30.47,30.25,20,4,21,0.00
2013-3-14,52.8,39.2,25.3,35.1,29.6,20.9,87,70,44,30.44,30.13,9,1,9,0.01
2013-3-15,71.0,51.4,30.3,49.0,39.9,28.3,95,69,37,30.13,29.67,11,0,11,0.00
2013-3-16,63.4,47.2,38.8,47.7,40.3,36.3,93,78,52,30.09,29.65,14,2,16,0.06
2013-3-17,38.8,35.8,33.1,36.9,32.7,28.1,96,88,78,30.14,29.82,17,2,17,1.00
2013-3-18,50.2,40.9,36.2,38.8,34.7,23.8,98,81,48,30.06,29.73,22,4,22,0.07
2013-3-19,45.4,36.9,28.7,25.8,20.8,16.1,78,54,32,30.26,30.06,19,3,20,0.00
2013-3-20,36.0,31.3,26.0,30.8,19.1,12.3,86,61,42,30.33,30.16,23,4,24,0.00
2013-3-21,36.6,29.1,21.5,20.2,15.8,12.8,72,58,42,30.18,30.04,10,2,10,0.00
2013-3-22,43.1,36.5,31.2,27.2,24.3,19.7,71,62,49,30.10,30.02,9,1,9,0.00
2013-3-23,53.4,44.4,37.2,35.7,28.4,23.3,76,54,40,30.09,29.86,14,2,14,0.01
2013-3-24,42.5,33.2,31.2,35.6,31.7,30.4,98,94,75,29.90,29.60,16,2,16,0.02
2013-3-25,36.0,32.0,28.9,32.2,29.2,25.8,98,90,76,30.24,29.86,18,2,18,0.11
2013-3-26,39.6,33.2,26.1,27.2,25.3,23.1,89,74,57,30.40,30.23,11,2,12,0.25
2013-3-27,44.7,34.0,20.3,29.1,25.0,18.8,96,72,52,30.45,30.34,7,1,8,0.00
2013-3-28,56.0,45.6,36.1,39.9,33.0,26.1,72,62,51,30.40,30.26,12,2,13,0.00
2013-3-29,61.3,52.2,43.2,47.2,42.9,38.7,88,72,54,30.27,30.19,11,1,12,0.00
2013-3-30,55.9,48.0,41.4,48.3,44.1,40.3,97,87,64,30.23,29.94,14,1,15,0.11
2013-3-31,67.0,54.9,46.9,51.4,44.5,34.3,97,72,35,29.97,29.86,22,3,22,0.00